TimeEDT,TemperatureF,Dew PointF,Humidity,Sea Level PressureIn,VisibilityMPH,Wind Direction,Wind SpeedMPH,Gust SpeedMPH,PrecipitationIn,Events,Conditions,WindDirDegrees,DateUTC
4:18 AM,44.6,35.6,71,30.15,12.0,North,10.4,-,N/A,,Mostly Cloudy,360,2012-10-27 08:18:00
4:55 AM,44.6,35.6,71,30.18,12.0,North,16.1,-,N/A,,Mostly Cloudy,350,2012-10-27 08:55:00
5:55 AM,42.8,35.6,76,30.18,12.0,North,17.3,-,N/A,,Mostly Cloudy,350,2012-10-27 09:55:00
6:55 AM,42.8,35.6,76,30.18,12.0,North,13.8,-,N/A,,Mostly Cloudy,350,2012-10-27 10:55:00
7:55 AM,42.8,35.6,76,30.19,12.0,NNW,13.8,-,N/A,,Mostly Cloudy,340,2012-10-27 11:55:00
8:55 AM,42.8,37.4,81,30.20,12.0,NNW,13.8,-,N/A,,Mostly Cloudy,340,2012-10-27 12:55:00
9:55 AM,44.6,37.4,76,30.19,12.0,North,13.8,-,N/A,,Mostly Cloudy,350,2012-10-27 13:55:00
10:55 AM,46.4,37.4,71,30.20,12.0,North,15.0,-,N/A,,Mostly Cloudy,350,2012-10-27 14:55:00
11:55 AM,48.2,39.2,71,30.19,12.0,North,17.3,23.0,N/A,,Mostly Cloudy,360,2012-10-27 15:55:00
12:55 PM,50.0,39.2,66,30.19,12.0,North,16.1,-,N/A,,Overcast,360,2012-10-27 16:55:00
1:55 PM,51.8,37.4,58,30.17,12.0,North,18.4,-,N/A,,Overcast,10,2012-10-27 17:55:00
2:55 PM,50.0,35.6,58,30.15,12.0,North,17.3,24.2,N/A,,Overcast,10,2012-10-27 18:55:00
3:55 PM,50.0,35.6,58,30.15,12.0,NNE,18.4,26.5,N/A,,Mostly Cloudy,20,2012-10-27 19:55:00
4:55 PM,48.2,33.8,58,30.17,12.0,North,12.7,-,N/A,,Mostly Cloudy,10,2012-10-27 20:55:00
5:55 PM,48.2,33.8,58,30.18,10.0,North,15.0,-,N/A,,Overcast,10,2012-10-27 21:55:00
6:55 PM,46.4,32.0,57,30.19,10.0,North,11.5,19.6,N/A,,Overcast,350,2012-10-27 22:55:00
7:55 PM,44.6,32.0,61,30.22,10.0,North,13.8,23.0,N/A,,Overcast,350,2012-10-27 23:55:00
8:55 PM,44.6,32.0,61,30.21,10.0,North,12.7,-,N/A,,Overcast,350,2012-10-28 00:55:00
9:55 PM,42.8,33.8,70,30.21,10.0,North,12.7,-,N/A,,Overcast,360,2012-10-28 01:55:00
10:55 PM,42.8,32.0,66,30.21,10.0,North,11.5,-,N/A,,Overcast,350,2012-10-28 02:55:00